User: anonymous
Location: Unspecified
(0.0000°N, 0.0000°E)
Time: 10:44:41
(UTC+02:00)
Language:

Cosmos 1072 Rocket - Orbit

View from above orbital plane
View from above orbital plane
View from above satellite
View from above satellite

Ground track
Ground track

The orbit data is extracted from the following two-line orbital elements,

1 11239U 79003B   14104.45621829  .00000121  00000-0  10909-3 0  2913
2 11239 082.9402 229.3222 0041084 034.1911 029.9261 13.75724861768397
Epoch (UTC): 14 April 2014 10:56:57
Eccentricity: 0.0041084
inclination: 82.9402°
perigee height: 949 km
apogee height: 1009 km
right ascension of ascending node: 229.3222°
argument of perigee: 34.1911°
revolutions per day: 13.75724861
mean anomaly at epoch: 29.9261°
orbit number at epoch: 76839

The dashed part of the orbit path shows where the satellite is in the earth's shadow,  

DLR